When you browse on this site, cookies collect data to enhance your experience and personalize the content and advertising you see.
Visit our Privacy Policy to learn more. By continuing to use the site, you agree to this use of cookies and data.
  • In Österreich
  • Länderverzeichnis
  • Für 7 Tage
  • Wassertemperatur
  • Satellitenkarten
  • Wetterkarte
  • News
  • Widgets
  • user-avatar
    Anmelden

    Stündliche Wetter Tirana

    Heute, 25 Juni, Dienstag

    Zeit Temperatur Niederschläge Wind Luftdruck Luftfeuchtigkeit
    00:00 +22°C° 0 mm 3 m/S 754 mmHg 80%
    01:00 +21°C° 0 mm 2 m/S 754 mmHg 78%
    02:00 +21°C° 0 mm 3 m/S 754 mmHg 75%
    03:00 +21°C° 0 mm 3 m/S 753 mmHg 72%
    04:00 +21°C° 0 mm 3 m/S 753 mmHg 68%
    05:00 +24°C° 0 mm 3 m/S 753 mmHg 64%
    06:00 +26°C° 0 mm 3 m/S 754 mmHg 60%
    07:00 +28°C° 0 mm 3 m/S 754 mmHg 55%
    08:00 +30°C° 0 mm 3 m/S 754 mmHg 49%
    09:00 +33°C° 0 mm 4 m/S 755 mmHg 42%
    10:00 +35°C° 0 mm 4 m/S 755 mmHg 35%
    11:00 +35°C° 0 mm 4 m/S 755 mmHg 34%
    12:00 +36°C° 0 mm 4 m/S 755 mmHg 33%
    13:00 +37°C° 0 mm 4 m/S 755 mmHg 33%
    14:00 +37°C° 0 mm 5 m/S 755 mmHg 33%
    15:00 +38°C° 0 mm 6 m/S 755 mmHg 34%
    16:00 +36°C° 0 mm 7 m/S 754 mmHg 34%
    17:00 +34°C° 0 mm 7 m/S 755 mmHg 42%
    18:00 +32°C° 0 mm 7 m/S 755 mmHg 51%
    19:00 +29°C° 0 mm 7 m/S 755 mmHg 59%
    20:00 +28°C° 0 mm 6 m/S 756 mmHg 60%
    21:00 +27°C° 0 mm 5 m/S 756 mmHg 61%
    22:00 +27°C° 0 mm 4 m/S 756 mmHg 62%
    23:00 +26°C° 0 mm 4 m/S 756 mmHg 61%

    Morgen, 26 Juni, Mittwoch

    Zeit Temperatur Niederschläge Wind Luftdruck Luftfeuchtigkeit
    00:00 +26°C° 0 mm 3 m/S 756 mmHg 61%
    01:00 +25°C° 0 mm 3 m/S 756 mmHg 61%
    02:00 +25°C° 0 mm 3 m/S 756 mmHg 60%
    03:00 +25°C° 0 mm 3 m/S 756 mmHg 60%
    04:00 +24°C° 0 mm 3 m/S 756 mmHg 60%
    05:00 +26°C° 0 mm 3 m/S 756 mmHg 57%
    06:00 +28°C° 0 mm 4 m/S 756 mmHg 55%
    07:00 +30°C° 0 mm 4 m/S 756 mmHg 52%
    08:00 +32°C° 0 mm 4 m/S 756 mmHg 47%
    09:00 +34°C° 0 mm 4 m/S 756 mmHg 43%
    10:00 +35°C° 0 mm 4 m/S 756 mmHg 38%
    11:00 +36°C° 0 mm 5 m/S 755 mmHg 37%
    12:00 +37°C° 0 mm 5 m/S 755 mmHg 35%
    13:00 +37°C° 0 mm 5 m/S 755 mmHg 34%
    14:00 +38°C° 0 mm 6 m/S 755 mmHg 35%
    15:00 +38°C° 0 mm 6 m/S 755 mmHg 36%
    16:00 +38°C° 0 mm 6 m/S 754 mmHg 37%
    17:00 +35°C° 0 mm 6 m/S 754 mmHg 43%
    18:00 +33°C° 0 mm 5 m/S 754 mmHg 50%
    19:00 +30°C° 0 mm 5 m/S 754 mmHg 56%
    20:00 +29°C° 0 mm 4 m/S 755 mmHg 58%
    21:00 +28°C° 0 mm 4 m/S 755 mmHg 59%
    22:00 +27°C° 0 mm 3 m/S 755 mmHg 61%
    23:00 +27°C° 0 mm 3 m/S 755 mmHg 61%

    übermorgen, 27 Juni, Donnerstag

    Zeit Temperatur Niederschläge Wind Luftdruck Luftfeuchtigkeit
    00:00 +26°C° 0 mm 3 m/S 755 mmHg 61%
    01:00 +26°C° 0 mm 3 m/S 755 mmHg 61%
    02:00 +25°C° 0 mm 3 m/S 755 mmHg 61%
    03:00 +25°C° 0 mm 3 m/S 755 mmHg 62%
    04:00 +25°C° 0 mm 3 m/S 754 mmHg 62%
    05:00 +26°C° 0 mm 2 m/S 754 mmHg 58%
    06:00 +28°C° 0 mm 2 m/S 754 mmHg 54%
    07:00 +29°C° 0 mm 2 m/S 754 mmHg 50%
    08:00 +31°C° 0 mm 2 m/S 754 mmHg 45%
    09:00 +34°C° 0 mm 2 m/S 754 mmHg 39%
    10:00 +36°C° 0 mm 2 m/S 754 mmHg 34%
    11:00 +36°C° 0 mm 3 m/S 754 mmHg 33%
    12:00 +37°C° 0 mm 4 m/S 753 mmHg 32%
    13:00 +37°C° 0 mm 5 m/S 753 mmHg 32%
    14:00 +36°C° 0 mm 6 m/S 753 mmHg 37%
    15:00 +35°C° 0 mm 6 m/S 752 mmHg 41%
    16:00 +34°C° 0 mm 7 m/S 752 mmHg 46%
    17:00 +32°C° 0 mm 6 m/S 752 mmHg 53%
    18:00 +30°C° 0 mm 5 m/S 752 mmHg 60%
    19:00 +28°C° 0 mm 5 m/S 752 mmHg 67%
    20:00 +27°C° 0 mm 4 m/S 752 mmHg 67%
    21:00 +27°C° 0 mm 3 m/S 752 mmHg 68%
    22:00 +26°C° 0 mm 3 m/S 752 mmHg 68%
    23:00 +26°C° 0 mm 2 m/S 752 mmHg 67%

    28 Juni, Freitag

    Zeit Temperatur Niederschläge Wind Luftdruck Luftfeuchtigkeit
    00:00 +25°C° 0 mm 2 m/S 752 mmHg 65%
    01:00 +25°C° 0 mm 2 m/S 752 mmHg 63%
    02:00 +25°C° 0 mm 1 m/S 752 mmHg 62%
    03:00 +24°C° 0 mm 1 m/S 751 mmHg 61%
    04:00 +24°C° 0 mm 1 m/S 751 mmHg 61%
    05:00 +26°C° 0 mm 1 m/S 751 mmHg 57%
    06:00 +28°C° 0 mm 1 m/S 751 mmHg 54%
    07:00 +30°C° 0 mm 1 m/S 751 mmHg 51%
    08:00 +32°C° 0 mm 2 m/S 751 mmHg 45%
    09:00 +34°C° 0 mm 3 m/S 751 mmHg 40%
    10:00 +36°C° 0 mm 4 m/S 751 mmHg 35%
    11:00 +37°C° 0 mm 4 m/S 751 mmHg 31%
    12:00 +37°C° 0 mm 5 m/S 750 mmHg 28%
    13:00 +39°C° 0 mm 6 m/S 750 mmHg 25%
    14:00 +38°C° 0 mm 7 m/S 750 mmHg 26%
    15:00 +38°C° 0 mm 7 m/S 750 mmHg 28%
    16:00 +36°C° 0 mm 7 m/S 750 mmHg 29%
    17:00 +34°C° 0 mm 7 m/S 750 mmHg 38%
    18:00 +32°C° 0 mm 7 m/S 750 mmHg 47%
    19:00 +29°C° 0 mm 6 m/S 750 mmHg 56%
    20:00 +28°C° 0 mm 6 m/S 750 mmHg 56%
    21:00 +27°C° 0 mm 5 m/S 751 mmHg 57%
    22:00 +26°C° 0 mm 5 m/S 751 mmHg 58%
    23:00 +25°C° 0 mm 5 m/S 751 mmHg 59%

    29 Juni, Samstag

    Zeit Temperatur Niederschläge Wind Luftdruck Luftfeuchtigkeit
    00:00 +23°C° 0 mm 5 m/S 751 mmHg 60%
    01:00 +23°C° 0 mm 5 m/S 751 mmHg 61%
    02:00 +22°C° 0 mm 5 m/S 751 mmHg 61%
    03:00 +21°C° 0 mm 5 m/S 751 mmHg 61%
    04:00 +20°C° 0 mm 5 m/S 751 mmHg 61%
    05:00 +22°C° 0 mm 4 m/S 751 mmHg 58%
    06:00 +23°C° 0 mm 4 m/S 751 mmHg 54%
    07:00 +26°C° 0 mm 4 m/S 752 mmHg 50%
    08:00 +28°C° 0 mm 4 m/S 752 mmHg 44%
    09:00 +30°C° 0 mm 4 m/S 752 mmHg 37%
    10:00 +33°C° 0 mm 3 m/S 752 mmHg 30%
    11:00 +34°C° 0 mm 4 m/S 752 mmHg 29%
    12:00 +35°C° 0 mm 5 m/S 752 mmHg 27%
    13:00 +36°C° 0 mm 6 m/S 752 mmHg 26%
    14:00 +35°C° 0 mm 6 m/S 752 mmHg 27%
    15:00 +35°C° 0 mm 7 m/S 752 mmHg 28%
    16:00 +35°C° 0 mm 7 m/S 752 mmHg 30%
    17:00 +33°C° 0 mm 7 m/S 752 mmHg 38%
    18:00 +30°C° 0 mm 7 m/S 752 mmHg 46%
    19:00 +28°C° 0 mm 7 m/S 752 mmHg 54%
    20:00 +27°C° 0 mm 6 m/S 752 mmHg 55%
    21:00 +26°C° 0 mm 5 m/S 753 mmHg 57%
    22:00 +25°C° 0 mm 4 m/S 753 mmHg 58%
    23:00 +23°C° 0 mm 4 m/S 753 mmHg 59%

    30 Juni, Sonntag

    Zeit Temperatur Niederschläge Wind Luftdruck Luftfeuchtigkeit
    00:00 +22°C° 0 mm 4 m/S 753 mmHg 59%
    01:00 +22°C° 0 mm 4 m/S 753 mmHg 60%
    02:00 +21°C° 0 mm 4 m/S 753 mmHg 60%
    03:00 +21°C° 0 mm 4 m/S 753 mmHg 61%
    04:00 +20°C° 0 mm 4 m/S 753 mmHg 62%
    05:00 +22°C° 0 mm 4 m/S 753 mmHg 58%
    06:00 +25°C° 0 mm 4 m/S 753 mmHg 55%
    07:00 +27°C° 0 mm 4 m/S 753 mmHg 51%
    08:00 +28°C° 0 mm 3 m/S 754 mmHg 45%
    09:00 +30°C° 0 mm 3 m/S 754 mmHg 38%
    10:00 +33°C° 0 mm 3 m/S 754 mmHg 32%
    11:00 +34°C° 0 mm 4 m/S 754 mmHg 30%
    12:00 +35°C° 0 mm 4 m/S 754 mmHg 28%
    13:00 +35°C° 0 mm 5 m/S 754 mmHg 26%
    14:00 +35°C° 0 mm 6 m/S 754 mmHg 26%
    15:00 +35°C° 0 mm 6 m/S 753 mmHg 27%
    16:00 +35°C° 0 mm 7 m/S 753 mmHg 28%
    17:00 +33°C° 0 mm 7 m/S 753 mmHg 35%
    18:00 +29°C° 0 mm 6 m/S 753 mmHg 43%
    19:00 +27°C° 0 mm 6 m/S 753 mmHg 51%
    20:00 +26°C° 0 mm 5 m/S 754 mmHg 51%
    21:00 +25°C° 0 mm 4 m/S 754 mmHg 52%
    22:00 +23°C° 0 mm 4 m/S 754 mmHg 52%
    23:00 +22°C° 0 mm 3 m/S 754 mmHg 52%
    Mehr zeigen